Tracking 29594 objects as of 20-Sep-2024
HD Live streaming from Space Station
objects crossing your sky now

SL-12 R/B(2)

Track SL-12 R/B(2) now!


NORAD ID: 28240
Int'l Code: 2004-015D
Perigee: 35,609.4 km
Apogee: 35,727.3 km
Inclination: 12.8 °
Period: 1,429.7 minutes
Semi major axis: 42039 km
RCS: 1.2715 m2 (large)
Launch date: April 26, 2004
Source: Commonwealth of Independent States (former USSR) (CIS)
Launch site: TYURATAM MISSILE AND SPACE COMPLEX (TTMTR)

Note: This is a ROCKET BODY
Your satellite tracking list
Your tracking list is empty




NASA's NSSDC Master Catalog

Two Line Element Set (TLE):
1 28240U 04015D   24263.91646500  .00000017  00000-0  00000-0 0  9992
2 28240  12.7684  18.9360 0014025 315.2229  44.6295  1.00720747 75009
Source of the keplerian elements: AFSPC